Back to catalog

SHIYAN 24C 02

AliveScienceSSO
NORAD 58651·PAYLOAD·🇨🇳 China

Launched Dec 25, 2023 from South China Sea Launch Area

Loading…

Next Passes (next 24 hours)

TLE

StaleSource: Space-Track

Epoch: Jun 17, 2026, 14:49 UTC

1 58651U 23206B   26168.61785512  .00001138  00000-0  10041-3 0  9998
2 58651  97.4070 136.4161 0004048  99.8565 260.3115 14.98217470135374

Track SHIYAN 24C 02 in real time with AllMySat

Download on the App Store